Track STARLINK-2078 now! 10-day predictions STARLINK-2078 is classified as:
1 47675U 21012BH 21110.58335648 -.00454488 00000-0 -85640-2 0 9992 2 47675 53.0476 147.9137 0001138 74.6229 234.5340 15.49582655 1766